Date,TemperatureHighF,TemperatureAvgF,TemperatureLowF,DewpointHighF,DewpointAvgF,DewpointLowF,HumidityHigh,HumidityAvg,HumidityLow,PressureMaxIn,PressureMinIn,WindSpeedMaxMPH,WindSpeedAvgMPH,GustSpeedMaxMPH,PrecipitationSumIn
2013-2-1,13.1,10.4,8.1,9.2,6.0,3.5,84,82,81,30.20,30.01,20,13,26,0.00
2013-2-6,31.0,24.7,12.2,26.4,17.4,10.3,93,74,57,30.34,30.04,10,3,16,0.07
2013-2-7,37.4,29.2,20.9,30.9,24.1,16.8,95,81,74,30.30,29.84,7,4,14,0.05
2013-2-8,32.0,28.0,17.0,31.2,24.4,14.1,97,86,71,30.39,29.82,14,7,22,0.06
2013-2-9,30.3,21.9,11.0,22.2,17.4,8.9,94,83,68,30.50,30.31,7,2,14,0.00
2013-2-10,43.8,32.1,21.1,42.7,28.0,18.6,96,85,72,30.31,29.72,9,4,17,0.07
2013-2-11,45.2,37.0,31.0,43.9,31.2,24.0,97,80,70,29.97,29.63,22,14,45,0.01
2013-2-12,35.1,31.2,28.8,27.5,24.7,23.2,81,77,71,30.12,29.98,17,9,26,0.00
2013-2-14,40.8,36.0,32.5,36.1,31.4,24.8,94,83,70,29.95,29.74,26,10,35,0.00
2013-2-15,32.9,28.0,19.4,25.1,20.5,14.5,85,73,61,30.19,29.94,21,8,26,0.00
2013-2-16,24.8,21.8,20.1,19.7,17.7,15.3,92,84,68,30.17,30.06,21,5,24,0.00
2013-2-18,51.6,35.2,18.6,40.6,26.7,13.9,87,71,60,30.25,29.64,11,7,27,0.07
2013-2-19,43.6,24.7,15.4,41.8,20.6,9.9,95,84,72,30.07,29.50,21,16,44,0.12
2013-2-20,22.5,19.1,15.5,16.9,14.4,11.4,89,82,76,30.35,30.07,17,12,27,0.00
2013-2-21,25.5,22.2,19.9,19.7,16.9,15.0,83,80,76,30.43,30.25,11,6,24,0.00
2013-2-22,33.7,27.3,20.6,33.2,25.6,16.3,98,93,82,30.25,29.93,11,6,21,0.00
2013-2-23,32.3,28.2,25.4,30.2,22.4,19.4,92,79,70,30.00,29.94,13,9,24,0.00
2013-2-24,34.3,30.4,24.7,26.4,24.2,19.5,85,78,71,30.21,29.98,14,6,21,0.04
2013-2-25,39.4,30.6,19.7,29.4,25.2,18.0,96,81,64,30.27,30.08,11,2,14,0.05
2013-2-26,33.0,31.1,28.5,32.2,28.6,24.8,97,90,82,30.09,29.47,18,4,25,0.70
2013-2-27,33.8,32.5,30.8,32.8,31.8,29.8,98,97,96,29.64,29.47,14,5,18,0.34
2013-2-28,36.5,33.5,30.8,32.8,31.0,29.4,98,90,80,29.99,29.61,18,7,20,0.15